Regional Weather Roundup
Issued by NWS

Current Version | Previous Version | Text Only | Print | Product List | Glossary On
Versions: 1 2 3 4 5 6 7 8 9 10 11 12 13 14 15 16 17 18 19 20 21 22 23 24 25 26 27 28 29 30 31 32 33 34 35 36 37 38 39 40 41 42 43 44 45 46 47 48 49 50
000
ASUS45 KABQ 102010
RWRNM
NEW MEXICO REGIONAL WEATHER ROUNDUP
NATIONAL WEATHER SERVICE ALBUQUERQUE NM
100 PM MST TUE DEC 10 2019

NOTE: "FAIR" MEANS FEW OR NO CLOUDS BELOW 12,000 FEET AGL WITH NO
       SIGNIFICANT WEATHER OR OBSTRUCTIONS TO VISION.

      THIS PRODUCT IS RELEASED AS TWO VERSIONS.  ONE VERSION NEAR
      THE TOP OF THE HOUR CONTAINING PRELIMINARY DATA FROM ALBUQUERQUE
      AND OTHER STATIONS.  A FINAL VERSION WITH ADDITIONAL DATA IS
      ISSUED ABOUT 10 MINUTES AFTER THE HOUR.

NMZ201-203-204-210>218-102100-
NORTHWEST PLATEAU/NORTHCENTRAL MOUNTAINS

CITY           SKY/WX    TMP DP  RH WIND       PRES   REMARKS
FARMINGTON     FAIR      41  25  53 W7        30.26F
LOS ALAMOS     FAIR      38  21  51 S5        30.23F WCI  34
SANTA FE       FAIR      42  27  55 SW8       30.22F
TAOS           FAIR      39  22  50 MISG      30.23F
ANGEL FIRE     FAIR      35  15  45 W13G22    30.18F WCI  26

$$
NMZ202-205>209-241-402-403-102100-
WESTCENTRAL MOUNTAINS/SOUTHWEST MOUNTAINS

CITY           SKY/WX    TMP DP  RH WIND       PRES   REMARKS
GALLUP         FAIR      44  21  40 VRB5      30.27F
GRANTS         FAIR      43  22  43 NW7G18    30.29S
SILVER CITY    FAIR      49  35  56 CALM      30.26F

$$
NMZ407-409-411-412-102100-
SOUTHERN DESERTS

CITY           SKY/WX    TMP DP  RH WIND       PRES   REMARKS
DEMING         FAIR      56  35  45 CALM      30.26F
LAS CRUCES     PTSUNNY   54  42  65 S7        30.27S
HOLLOMAN AFB   FAIR      49  41  75 CALM      30.25F
ALAMOGORDO     FAIR      46  41  81 SW3       30.26F
T OR C         FAIR      54  29  38 SE8       30.23F

$$
NMZ219>223-102100-
CENTRAL VALLEYS/CENTRAL HIGHLANDS

CITY           SKY/WX    TMP DP  RH WIND       PRES   REMARKS
ALBUQUERQUE    FAIR      46  24  42 CALM      30.26F
DOUBLE EAGLE   SUNNY     46  23  39 N6        30.26F
MORIARTY ARPT  FAIR      47  26  42 W7        30.23S
CLINES CORNERS FAIR      40  19  43 NW31G40   30.19F WCI  28
BELEN          FAIR      47  23  38 N5        30.27F
SOCORRO        FAIR      50  28  42 NE5       30.25F

$$
NMZ224>226-239-240-102100-
SOUTHCENTRAL MOUNTAINS

CITY           SKY/WX    TMP DP  RH WIND       PRES   REMARKS
RUIDOSO        FAIR      46  23  39 NW9G16    30.24R

$$
NMZ227>231-102100-
NORTHEAST HIGHLANDS/NORTHEAST PLAINS

CITY           SKY/WX    TMP DP  RH WIND       PRES   REMARKS
LAS VEGAS      FAIR      47  16  29 VRB6      30.14F
RATON          FAIR      41  23  48 NE3       30.11F
CLAYTON        FAIR      44  20  38 S13       30.13F

$$
NMZ232>237-102100-
EASTCENTRAL PLAINS

CITY           SKY/WX    TMP DP  RH WIND       PRES   REMARKS
SANTA ROSA     FAIR      52  26  37 S6        30.13F
TUCUMCARI      FAIR      50  24  36 S8        30.15F
CANNON AFB     FAIR      47  25  41 S7        30.21F
CLOVIS AIRPORT FAIR      47  24  40 SW9       30.21F

$$
NMZ028-029-033-238-102100-
SOUTHEAST PLAINS

CITY           SKY/WX    TMP DP  RH WIND       PRES   REMARKS
ROSWELL        FAIR      50  32  50 S12       30.20F
ARTESIA        FAIR      50  32  50 S12       30.23F
CARLSBAD       FAIR      51  35  54 S9        30.22F
HOBBS          SUNNY     48  27  43 S9        30.24F


$$



USA.gov is the U.S. government's official web portal to all federal, state and local government web resources and services.